Temp
52 52 49 47 46 47 48 47 46 49 44 42 48 49 54 56 49 49 52 53 52 51 54 51 49 49 48 49 48 49 48 48 50 51 51 49 47 48 48 47 47 46 46 46
49 47 42 42 44 45 46 44 47 46 42 41 47 45 53 57 56 52 52 53 53 52 52 49 48 48 48 48 48 48 48 48 49 50 48 50 49 47 47 47 46 45 45 45
48 39 39 40 41 41 42 42 42 39 43 44 42 48 51 53 55 58 55 55 56 52 51 48 47 47 48 48 47 48 47 47 48 47 47 47 47 49 48 46 45 43 44 44
40 39 38 40 38 39 37 39 38 38 40 40 43 39 51 57 52 50 52 53 54 54 53 51 48 47 48 48 49 49 47 47 47 47 47 47 48 45 45 45 45 44 44 44
32 36 37 38 33 36 35 38 38 38 39 37 41 37 50 50 53 54 55 53 54 55 54 52 50 49 50 49 48 48 48 47 47 46 47 47 45 45 46 45 44 43 44 43
34 37 37 35 35 37 38 37 38 38 38 31 37 37 45 50 47 51 53 53 54 54 54 53 53 51 50 49 48 47 46 46 46 46 46 46 45 44 44 44 44 44 44 43
34 32 35 36 35 37 36 36 34 31 29 32 35 32 42 49 47 47 48 50 52 54 53 52 51 49 49 47 46 46 46 45 46 45 45 45 45 44 44 43 44 43 43 42
34 29 32 34 34 34 36 35 35 26 29 36 32 31 44 44 46 48 47 47 47 50 52 51 51 49 48 47 46 46 45 45 45 45 45 45 45 45 45 44 44 43 42 42
33 28 32 32 34 33 33 30 34 28 20 27 39 42 46 44 46 47 45 44 45 47 50 50 51 50 49 47 47 47 46 45 46 45 45 45 45 44 43 43 43 43 42 42
37 25 29 30 34 33 31 35 30 31 23 23 35 34 39 44 45 48 46 46 47 45 47 50 50 50 50 50 49 48 48 46 46 46 46 45 44 44 44 43 42 42 42 40
32 33 23 27 26 32 28 29 28 29 30 28 28 37 43 44 45 46 45 45 46 46 45 48 50 51 51 50 49 48 48 47 46 45 45 44 44 43 42 41 41 41 41 40
32 33 26 28 29 30 27 32 33 31 26 28 26 31 44 46 45 45 44 45 45 45 46 47 48 50 49 48 48 48 47 46 46 46 45 43 44 43 41 40 40 39 37 39
30 30 24 23 24 25 22 29 31 29 29 25 26 35 43 43 43 45 44 45 46 47 47 46 46 47 48 47 47 47 47 46 46 46 44 43 42 42 42 41 40 39 35 34
33 28 28 32 28 28 20 23 29 27 25 29 30 37 44 47 47 49 48 47 47 46 45 44 44 45 47 45 46 46 45 45 44 43 42 41 42 41 41 41 40 38 37 33
29 25 19 24 27 25 25 19 23 22 29 27 36 38 42 44 41 43 45 44 43 43 44 44 42 43 44 44 44 44 45 43 42 41 40 41 41 41 41 40 39 39 37 35
20 23 15 18 26 24 18 21 20 25 27 31 33 33 45 44 45 43 43 42 41 41 42 42 41 40 40 40 41 40 41 41 41 40 40 40 40 39 39 39 38 37 36 36
21 19 19 23 23 24 16 16 20 26 27 29 26 35 43 40 38 38 37 38 38 39 39 39 40 40 39 40 39 39 39 40 38 38 39 39 38 37 37 38 37 36 35 35
19 21 23 22 16 17 27 30 27 27 32 30 32 35 35 34 36 35 35 34 35 37 38 39 40 41 41 42 40 41 40 38 37 37 37 37 35 33 34 33 32 33 34 32
22 25 19 19 20 28 33 25 22 20 28 31 31 33 35 34 31 32 33 34 35 35 36 39 38 38 39 38 38 37 36 35 34 32 32 29 29 28 28 28 28 29 30 30
20 21 22 14 17 18 27 28 29 28 23 31 32 33 33 30 30 32 30 32 32 32 33 34 34 33 31 31 35 32 27 25 21 22 23 24 24 24 24 25 25 27 28 28
14 16 15 18 18 25 32 27 27 21 27 28 32 32 30 31 29 29 30 28 28 27 28 30 27 24 23 25 27 24 21 15 17 18 19 20 21 21 23 24 24 24 24 25
16 15 14 19 15 13 30 25 25 28 26 28 29 30 29 30 29 27 26 24 24 23 22 24 22 18 16 17 19 19 14 14 13 13 15 16 17 19 21 20 20 21 22 21
19 28 20 23 23 26 30 30 28 28 28 27 29 27 27 29 26 27 22 18 16 16 18 19 18 15 11 12 12 13 12 10 9 9 10 12 14 17 19 17 18 19 21 22
21 25 24 22 26 25 26 25 26 27 26 24 24 23 25 25 23 22 20 18 18 16 14 15 16 12 11 11 12 10 10 8 7 8 10 12 13 15 17 19 19 19 19 20
26 23 22 22 25 25 23 26 25 22 22 20 19 19 20 20 18 18 16 15 15 15 13 12 12 11 10 10 9 9 7 6 5 7 9 11 13 13 14 16 17 18 19 19
25 24 23 25 29 28 22 20 21 19 18 18 16 14 14 15 14 14 12 11 11 10 9 9 8 7 7 7 7 7 5 4 2 4 7 8 9 10 12 13 14 19 21 23
MSLP
1018.87 1018.58 1018.77 1019.56 1019.80 1019.39 1018.79 1018.82 1018.94 1019.64 1021.19 1020.99 1019.42 1018.38 1017.84 1018.23 1019.15 1019.45 1019.69 1020.25 1021.21 1022.36 1023.36 1024.71 1025.86 1026.63 1027.19 1027.58 1027.86 1028.00 1028.15 1028.35 1028.24 1028.16 1028.08 1028.31 1028.52 1028.71 1028.98 1029.20 1029.26 1029.14 1029.04 1028.74
1019.51 1019.80 1021.47 1021.71 1021.12 1020.39 1019.98 1019.69 1019.50 1020.22 1021.22 1021.03 1019.25 1017.76 1016.48 1016.74 1016.93 1018.11 1018.69 1019.37 1020.39 1021.63 1022.84 1024.39 1025.49 1026.27 1026.93 1027.41 1027.79 1028.10 1028.33 1028.50 1028.57 1028.51 1028.74 1028.57 1028.75 1029.16 1029.26 1029.43 1029.69 1029.71 1029.62 1029.41
1019.91 1022.26 1022.88 1022.56 1022.16 1021.67 1021.35 1021.04 1020.95 1021.35 1021.00 1020.68 1019.56 1016.27 1015.36 1015.78 1016.05 1016.52 1017.92 1018.86 1019.66 1020.95 1022.19 1023.76 1024.90 1025.70 1026.42 1026.97 1027.56 1027.98 1028.37 1028.65 1028.82 1029.02 1029.13 1029.17 1029.16 1028.91 1028.96 1029.39 1029.75 1030.11 1029.96 1029.85
1022.34 1023.62 1023.62 1023.43 1023.35 1023.24 1022.80 1022.83 1022.43 1021.97 1021.20 1020.00 1019.70 1016.59 1015.00 1014.71 1015.67 1016.52 1017.25 1018.06 1018.85 1019.96 1021.29 1022.81 1024.08 1024.95 1025.73 1026.43 1027.21 1027.80 1028.30 1028.65 1028.97 1029.04 1028.86 1028.68 1028.57 1028.90 1029.51 1029.68 1030.02 1030.14 1030.32 1030.20
1024.18 1024.43 1024.56 1024.40 1024.95 1024.67 1024.25 1023.86 1023.14 1022.48 1021.36 1020.65 1019.23 1018.11 1015.17 1015.22 1015.21 1015.92 1016.76 1017.85 1018.45 1019.21 1020.41 1021.79 1023.26 1024.25 1025.09 1026.02 1026.83 1027.51 1028.07 1028.50 1028.96 1029.12 1028.99 1028.96 1029.07 1029.39 1029.64 1029.81 1029.97 1030.18 1030.33 1030.46
1024.71 1025.79 1025.75 1025.93 1026.02 1025.54 1025.09 1024.31 1023.48 1022.72 1021.78 1020.48 1019.21 1018.44 1015.44 1015.22 1016.28 1016.70 1017.21 1017.70 1018.26 1019.00 1019.90 1021.25 1022.54 1023.79 1024.63 1025.73 1026.67 1027.34 1027.93 1028.38 1028.82 1029.08 1029.23 1029.19 1029.29 1029.45 1029.53 1029.78 1029.87 1030.10 1030.23 1030.36
1024.96 1025.87 1026.66 1026.86 1026.30 1026.11 1025.40 1024.17 1022.88 1022.21 1021.58 1020.24 1019.89 1019.28 1016.54 1016.49 1017.15 1017.64 1017.83 1018.17 1018.39 1018.70 1019.66 1020.83 1021.98 1023.41 1024.21 1025.21 1026.16 1026.96 1027.63 1028.12 1028.63 1029.02 1029.22 1029.37 1029.42 1029.57 1029.64 1029.82 1029.94 1030.07 1030.13 1030.31
1024.00 1026.02 1026.70 1027.35 1026.78 1026.16 1025.44 1024.65 1022.99 1022.36 1021.80 1020.45 1020.28 1018.26 1016.67 1017.46 1017.91 1018.41 1018.68 1018.78 1019.13 1019.20 1019.69 1020.49 1021.56 1022.87 1023.85 1024.91 1025.76 1026.43 1027.10 1027.57 1028.21 1028.69 1029.00 1029.26 1029.47 1029.59 1029.74 1029.89 1030.04 1030.13 1030.22 1030.44
1023.63 1025.79 1027.35 1027.75 1027.60 1027.34 1026.40 1025.70 1024.89 1023.75 1023.59 1021.82 1018.74 1017.04 1016.94 1017.33 1017.84 1018.36 1019.05 1019.17 1019.35 1019.78 1019.90 1020.52 1021.52 1022.43 1023.36 1024.31 1025.08 1025.81 1026.54 1027.17 1027.65 1028.17 1028.61 1028.97 1029.31 1029.55 1029.68 1029.89 1030.05 1030.08 1030.28 1030.42
1023.54 1025.61 1027.54 1028.17 1028.13 1027.94 1027.48 1026.71 1025.52 1024.30 1023.27 1021.38 1018.45 1017.59 1016.97 1017.11 1017.51 1018.06 1018.91 1019.39 1019.60 1020.15 1020.43 1020.60 1021.23 1022.24 1023.07 1023.80 1024.65 1025.38 1025.98 1026.63 1027.24 1027.84 1028.27 1028.62 1028.96 1029.29 1029.58 1029.83 1029.98 1030.04 1030.11 1030.43
1024.34 1024.73 1028.05 1028.54 1027.79 1027.00 1027.83 1026.83 1025.89 1024.88 1023.37 1021.91 1019.58 1017.12 1016.59 1017.12 1017.79 1018.24 1019.08 1019.56 1019.91 1020.27 1020.76 1020.95 1021.18 1021.61 1022.32 1023.14 1023.97 1024.76 1025.56 1026.22 1026.83 1027.40 1027.87 1028.29 1028.63 1028.99 1029.35 1029.65 1029.88 1030.02 1030.11 1030.23
1024.88 1025.03 1026.38 1027.16 1027.74 1027.97 1027.71 1026.69 1025.67 1024.24 1023.73 1022.65 1021.64 1017.81 1017.18 1017.36 1017.89 1018.46 1019.15 1019.63 1019.97 1020.46 1020.59 1020.80 1020.95 1021.27 1021.94 1022.66 1023.32 1024.02 1024.89 1025.70 1026.37 1026.92 1027.42 1027.85 1028.29 1028.66 1029.01 1029.25 1029.54 1029.91 1030.17 1030.08
1025.09 1025.33 1026.07 1027.25 1028.31 1028.48 1027.89 1026.68 1026.29 1025.56 1023.92 1022.24 1021.09 1017.88 1017.72 1017.72 1018.13 1018.72 1019.22 1019.69 1019.87 1019.93 1020.32 1020.77 1021.10 1021.17 1021.52 1022.14 1022.90 1023.53 1024.16 1024.90 1025.72 1026.34 1027.02 1027.50 1027.89 1028.22 1028.49 1028.76 1029.16 1029.48 1030.04 1030.23
1025.62 1025.22 1025.00 1025.36 1025.55 1026.01 1027.28 1026.78 1026.13 1025.47 1024.30 1021.75 1019.49 1017.08 1017.78 1017.50 1017.76 1018.15 1018.84 1019.36 1019.69 1019.85 1020.19 1020.63 1021.03 1021.32 1021.68 1022.31 1022.79 1023.30 1023.98 1024.76 1025.50 1026.08 1026.61 1027.04 1027.41 1027.81 1028.18 1028.43 1028.75 1029.20 1029.53 1030.01
1026.26 1025.98 1025.96 1025.56 1025.76 1026.07 1026.12 1026.51 1026.26 1025.47 1023.36 1021.76 1018.31 1017.56 1017.34 1017.68 1018.39 1019.00 1019.45 1019.78 1020.19 1020.16 1020.22 1020.54 1021.01 1021.33 1021.78 1022.45 1023.09 1023.61 1024.01 1024.72 1025.40 1025.99 1026.41 1026.74 1027.24 1027.65 1027.95 1028.25 1028.53 1028.79 1029.04 1029.32
1027.20 1026.84 1026.80 1026.03 1025.62 1026.06 1026.04 1026.11 1025.83 1024.65 1023.54 1021.73 1019.69 1018.04 1018.19 1018.47 1018.73 1019.34 1019.90 1020.16 1020.40 1020.54 1020.67 1020.89 1021.15 1021.51 1021.83 1022.42 1022.96 1023.44 1023.87 1024.51 1025.23 1025.70 1026.16 1026.68 1027.10 1027.51 1027.77 1028.07 1028.28 1028.50 1028.60 1028.73
1027.13 1027.00 1026.89 1025.84 1025.66 1025.33 1024.93 1024.21 1023.84 1023.14 1021.94 1020.71 1020.18 1017.40 1018.36 1018.97 1019.85 1020.32 1020.93 1021.20 1021.22 1021.22 1021.22 1021.30 1021.44 1021.72 1022.16 1022.66 1023.23 1023.60 1023.98 1024.59 1025.21 1025.70 1026.12 1026.60 1027.11 1027.41 1027.73 1027.94 1028.14 1028.21 1028.26 1028.32
1026.89 1027.00 1026.55 1025.91 1025.70 1024.17 1021.40 1021.88 1022.21 1021.92 1020.68 1020.93 1019.79 1018.83 1019.69 1020.29 1021.10 1021.39 1021.95 1022.18 1022.03 1022.02 1022.08 1021.95 1022.09 1022.21 1022.67 1023.00 1023.44 1023.67 1024.19 1024.89 1025.62 1026.11 1026.46 1026.89 1027.30 1027.66 1027.88 1028.10 1028.19 1028.09 1028.07 1028.00
1027.27 1026.58 1026.43 1025.90 1024.42 1021.33 1019.93 1021.17 1021.85 1021.68 1019.94 1019.52 1019.61 1019.47 1020.27 1020.97 1022.15 1022.45 1023.13 1023.28 1023.14 1023.30 1023.15 1022.98 1023.32 1023.51 1023.87 1024.15 1024.41 1024.73 1025.27 1025.90 1026.50 1027.15 1027.52 1028.07 1028.25 1028.32 1028.44 1028.40 1028.28 1028.15 1027.98 1027.73
1027.75 1027.12 1025.77 1025.85 1023.91 1021.30 1019.74 1020.39 1021.17 1021.57 1020.40 1019.28 1019.55 1019.96 1020.64 1021.87 1022.42 1023.13 1023.94 1024.18 1024.46 1024.74 1024.75 1024.63 1024.96 1025.42 1025.85 1026.09 1025.85 1026.31 1027.10 1027.73 1028.44 1028.84 1029.02 1029.02 1029.01 1028.94 1028.71 1028.58 1028.49 1028.16 1027.75 1027.33
1027.15 1026.73 1025.06 1024.30 1023.22 1020.29 1019.67 1020.88 1021.82 1022.06 1020.92 1020.47 1020.48 1020.91 1021.62 1022.16 1023.37 1024.17 1024.93 1025.53 1026.00 1026.47 1026.49 1026.55 1026.99 1027.61 1028.22 1028.27 1027.88 1028.26 1028.98 1029.69 1030.16 1030.09 1029.87 1029.67 1029.56 1029.36 1029.04 1028.67 1028.43 1028.03 1027.40 1027.02
1023.57 1024.15 1023.82 1023.95 1023.33 1021.28 1020.10 1021.83 1021.87 1021.39 1021.90 1021.84 1022.15 1022.49 1022.93 1023.44 1024.36 1025.31 1026.11 1026.90 1027.34 1027.78 1028.15 1028.23 1028.57 1029.40 1030.09 1030.18 1029.77 1029.95 1030.59 1031.15 1031.13 1030.93 1030.63 1030.36 1030.08 1029.77 1029.25 1028.81 1028.24 1027.64 1027.09 1026.75
1021.97 1020.49 1020.74 1020.88 1019.92 1020.03 1020.38 1020.65 1021.40 1021.85 1022.18 1023.07 1023.38 1024.12 1024.43 1024.60 1025.54 1026.25 1027.17 1028.13 1028.84 1029.24 1029.59 1029.89 1030.09 1030.74 1031.37 1031.55 1031.57 1031.52 1031.93 1032.10 1031.93 1031.60 1031.20 1030.74 1030.26 1029.73 1029.25 1028.75 1027.96 1027.33 1026.77 1026.39
1020.65 1020.74 1020.36 1020.77 1019.72 1020.30 1020.88 1021.83 1022.47 1022.99 1023.56 1024.41 1025.02 1025.63 1025.65 1026.01 1026.86 1027.63 1028.31 1029.17 1029.76 1030.33 1030.74 1031.06 1031.11 1031.64 1032.09 1032.47 1032.63 1032.87 1032.89 1032.81 1032.46 1031.91 1031.34 1030.80 1030.14 1029.53 1029.04 1028.59 1027.95 1027.23 1026.78 1026.39
1019.81 1020.60 1020.56 1020.54 1020.80 1021.40 1021.93 1022.47 1023.37 1024.39 1025.06 1025.94 1026.70 1027.08 1027.25 1027.71 1028.43 1029.01 1029.65 1030.46 1031.06 1031.41 1031.88 1032.14 1032.30 1032.59 1032.94 1033.17 1033.29 1033.41 1033.45 1033.25 1032.73 1032.14 1031.54 1030.90 1030.36 1029.89 1029.24 1028.60 1027.99 1027.42 1026.99 1026.70
1019.58 1019.81 1020.36 1020.12 1020.57 1021.25 1022.56 1023.76 1024.61 1025.36 1026.27 1026.99 1027.69 1028.64 1029.37 1029.67 1030.11 1030.54 1031.19 1031.88 1032.38 1032.72 1033.09 1033.19 1033.40 1033.63 1033.76 1033.83 1033.91 1033.97 1034.00 1033.84 1033.53 1032.81 1032.07 1031.57 1030.96 1030.28 1029.51 1028.73 1027.81 1027.38 1026.65 1026.03
Wind_Speed
2 5 2 6 4 3 3 3 5 2 4 5 10 15 15 11 15 16 16 16 15 14 11 12 11 10 8 6 6 5 5 4 3 2 2 4 5 5 6 7 10 10 10 11
4 3 3 1 0 1 1 2 3 2 1 4 10 20 22 17 19 17 18 16 15 14 13 13 13 11 10 9 7 6 5 4 3 2 3 3 4 4 5 5 7 9 9 10
1 6 2 1 3 3 1 4 2 4 7 5 12 10 2 2 9 14 14 15 15 16 16 15 15 14 12 10 9 7 6 5 4 5 4 3 3 3 4 4 5 7 8 9
8 3 2 4 3 3 3 2 1 3 5 5 4 8 11 3 4 7 11 13 15 16 16 16 16 16 14 12 10 8 7 6 5 3 2 2 3 4 4 4 4 4 7 8
4 3 3 3 4 4 4 0 1 2 4 4 7 5 5 3 4 10 2 7 12 15 17 17 17 16 14 12 11 9 8 7 5 4 3 2 4 3 3 3 3 4 4 6
5 2 4 3 3 2 6 2 2 2 3 4 4 4 1 2 4 6 4 4 6 11 15 16 15 15 14 12 11 10 10 8 7 5 4 3 4 3 3 2 2 2 2 3
4 3 3 1 4 3 4 4 2 2 2 3 3 5 8 10 6 5 9 7 5 7 13 15 16 15 14 15 13 11 11 10 8 7 5 4 3 3 2 1 1 1 2 3
7 4 4 1 3 3 5 3 3 5 3 3 2 8 2 3 4 6 5 4 4 5 10 15 17 16 15 14 14 13 12 11 10 9 8 6 5 3 2 2 1 0 1 2
4 4 3 3 1 3 5 5 4 2 3 3 7 5 5 6 4 4 5 3 2 3 8 13 15 16 16 15 16 15 13 11 12 11 8 7 5 4 3 3 3 2 1 0
5 5 1 3 2 3 4 2 4 3 3 5 6 5 8 6 3 6 8 8 4 1 5 11 14 15 14 14 14 14 14 13 11 10 9 7 7 6 5 4 5 4 3 3
1 1 4 1 8 7 5 5 3 2 2 3 6 4 3 5 2 3 5 6 5 4 3 7 12 14 15 14 14 14 13 13 11 10 9 8 7 6 6 6 5 6 5 4
4 2 5 3 3 3 3 4 7 5 7 2 4 9 5 4 2 3 2 4 4 3 4 8 13 14 15 15 15 15 14 13 12 11 9 8 7 6 6 6 6 5 6 5
6 4 4 3 2 0 5 9 6 1 2 8 5 6 2 4 4 4 4 5 4 5 6 6 9 13 13 14 14 13 13 12 10 9 9 8 8 7 7 6 5 6 6 5
3 2 3 4 4 6 6 8 15 7 5 7 15 23 8 9 8 6 2 5 11 6 4 5 7 11 11 11 12 12 11 8 8 7 8 8 8 7 6 5 6 6 6 6
3 4 0 3 3 3 2 5 14 15 16 12 17 20 11 6 2 7 11 9 9 9 7 5 6 8 11 11 11 9 9 8 7 7 8 8 6 6 6 5 5 6 7 7
0 3 3 4 3 6 6 9 11 19 16 22 23 25 17 12 10 7 7 9 9 8 7 6 4 6 8 10 10 7 8 8 8 8 7 6 6 6 5 5 6 7 7 8
7 7 4 4 2 3 11 20 22 14 10 19 16 23 9 4 3 5 9 10 9 8 7 7 5 4 5 7 6 7 7 6 6 5 6 6 5 5 4 5 6 7 7 8
7 4 3 0 1 8 1 2 8 19 14 19 15 14 4 2 4 3 4 6 7 5 7 6 4 0 3 4 5 5 5 6 6 6 4 4 1 2 3 3 5 6 7 8
1 4 4 4 7 10 9 8 9 10 7 20 22 19 11 1 2 4 7 6 6 8 7 7 8 7 7 7 5 6 6 6 6 6 6 6 5 4 4 5 5 6 7 8
3 2 4 4 6 9 5 5 5 3 9 4 11 10 9 7 7 5 6 7 9 10 10 9 10 11 12 11 8 9 9 9 8 8 7 6 5 6 6 6 7 7 7 8
5 4 13 9 8 9 4 9 6 7 3 5 6 6 8 4 4 4 6 9 10 10 11 10 11 11 12 12 10 10 9 10 9 8 8 8 7 8 8 8 7 7 7 7
12 13 8 8 9 14 12 8 8 3 4 6 8 8 7 6 6 7 7 8 9 9 11 11 9 10 11 11 9 8 9 8 8 8 8 8 7 8 7 8 8 8 7 7
7 6 9 13 9 3 14 4 5 2 6 4 6 4 3 3 4 5 7 8 8 9 9 9 8 8 7 9 9 8 8 9 9 7 7 6 7 7 7 8 7 7 7 7
6 2 3 3 6 6 9 4 4 4 7 7 7 4 3 5 4 6 6 6 5 7 8 8 7 8 7 8 8 7 8 8 7 7 8 8 7 8 7 7 6 6 6 7
2 10 7 4 3 3 3 8 7 7 8 8 8 7 6 7 6 5 5 5 5 6 6 7 7 7 8 8 8 8 9 9 9 9 8 8 7 8 8 8 7 7 7 8
7 7 7 5 4 0 5 8 6 8 7 6 8 8 9 7 6 5 5 5 5 5 6 6 7 7 8 9 9 9 9 9 8 10 8 8 8 8 8 8 9 13 17 19
Wind_Direction
107 211 145 54 24 5 11 321 305 91 51 297 267 277 275 219 221 234 231 222 218 216 195 173 177 171 170 165 162 153 137 133 184 159 113 77 67 66 60 52 38 35 31 28
175 140 94 126 56 130 186 274 289 135 56 271 299 286 274 256 241 228 235 230 222 214 195 181 184 180 185 176 176 165 143 131 116 101 75 63 85 70 66 64 50 35 35 30
113 95 125 211 132 151 15 299 337 310 314 235 292 264 199 140 265 236 234 243 228 220 207 193 193 189 186 182 179 176 158 141 116 119 127 111 133 145 97 62 56 38 35 32
69 94 146 160 110 309 215 35 289 290 303 327 342 292 312 349 262 240 251 229 231 216 213 200 197 192 190 186 177 175 165 157 140 147 135 45 60 87 72 67 58 59 37 33
100 125 134 162 45 330 54 128 344 305 280 309 169 257 106 54 28 39 24 241 239 225 212 205 199 193 188 181 177 177 173 169 155 149 138 129 99 104 96 87 74 60 60 41
85 70 8 68 98 38 135 153 187 238 286 252 75 277 298 102 28 345 329 336 270 226 211 207 196 191 185 178 179 181 179 179 171 172 169 161 141 138 139 108 90 60 50 39
143 78 100 246 130 156 232 212 195 218 211 270 102 255 277 318 8 319 307 320 323 224 208 203 195 192 186 181 183 183 186 187 181 188 190 188 172 168 145 160 79 27 45 37
175 192 173 74 334 325 197 297 267 240 232 4 153 238 222 111 312 337 301 296 302 249 207 204 198 192 191 187 187 187 187 189 187 191 197 197 197 206 209 204 205 150 29 40
144 120 125 55 334 324 148 221 32 61 91 263 240 219 230 135 122 28 23 7 354 276 216 205 204 196 196 189 193 192 190 196 190 194 195 199 202 216 232 232 235 238 232 131
155 113 324 101 214 129 292 14 164 177 245 260 244 262 254 187 108 68 50 31 27 288 240 210 204 201 202 193 194 194 196 195 194 193 196 200 203 214 229 243 247 246 238 225
110 274 125 247 205 181 166 210 213 321 217 251 285 259 54 145 149 108 57 32 25 14 253 232 218 206 200 194 192 194 196 195 193 193 194 200 206 208 219 233 244 250 243 232
174 41 159 162 81 356 348 287 210 220 172 206 307 272 190 180 225 190 136 38 37 2 262 224 215 209 202 198 192 189 191 194 198 196 196 200 208 210 218 232 238 232 250 239
182 193 141 188 181 110 220 188 238 356 39 199 244 251 163 164 215 193 255 331 312 309 281 247 237 215 206 197 194 191 188 193 193 192 197 203 210 213 225 231 234 230 222 235
178 180 246 264 74 108 194 204 205 195 208 237 222 263 207 242 251 251 278 284 322 325 302 266 238 232 216 208 196 190 188 183 187 188 203 211 208 209 221 230 231 228 221 221
217 214 108 280 233 193 175 177 195 205 217 221 258 254 251 268 313 301 309 321 308 315 320 281 253 232 218 206 200 194 183 177 185 198 207 208 200 205 220 226 232 234 225 221
54 158 142 257 190 221 237 227 212 216 232 251 257 274 279 308 292 282 310 312 306 316 332 326 266 231 214 198 202 182 182 182 187 205 206 199 192 206 214 228 233 234 232 232
164 149 163 244 22 310 265 205 206 212 211 221 237 245 266 235 271 332 322 321 317 321 331 332 304 232 198 190 191 185 180 172 188 197 196 193 201 212 222 239 243 240 243 243
146 170 188 91 154 242 11 107 201 222 242 218 252 251 161 249 308 322 24 334 331 345 345 349 349 312 169 169 173 140 146 158 171 174 181 185 189 268 290 260 257 263 258 251
352 165 171 219 211 311 239 188 178 175 258 218 229 247 249 195 232 141 24 11 23 16 16 35 46 58 66 60 74 103 99 82 88 54 63 35 8 343 309 287 278 264 260 258
100 352 245 153 229 241 55 131 128 156 272 177 215 229 216 161 196 112 40 38 49 45 38 51 59 59 50 30 34 71 59 65 45 22 4 352 344 315 301 291 283 278 271 271
167 191 218 206 244 277 116 136 144 182 316 112 138 124 134 149 38 92 64 64 63 50 39 55 57 53 37 22 33 54 52 37 9 357 348 340 334 318 300 297 293 290 285 280
170 170 191 197 220 256 136 124 202 71 40 107 103 99 99 79 88 93 88 68 53 51 40 37 55 48 33 24 29 43 38 11 358 347 335 332 321 310 303 299 294 295 289 279
214 223 176 196 205 103 189 56 98 90 140 121 125 88 71 117 105 98 85 70 59 46 38 32 42 47 42 25 27 23 17 360 347 334 325 313 312 306 312 305 302 301 295 281
222 174 220 163 178 201 185 111 119 85 112 101 78 68 47 104 86 95 91 70 58 50 37 24 26 32 28 19 20 11 3 351 332 331 330 322 322 328 313 313 303 304 298 291
95 152 170 247 189 122 186 206 159 125 110 103 83 73 76 106 84 87 80 62 47 41 34 28 23 18 10 1 1 4 0 350 344 336 329 331 330 324 317 310 309 300 289 284
187 171 195 231 119 53 92 133 134 134 122 118 119 95 65 73 78 78 74 54 31 26 19 18 17 7 358 353 350 354 354 350 342 332 333 328 319 320 310 311 307 300 299 297